Time,TemperatureF,DewpointF,PressureIn,WindDirection,WindDirectionDegrees,WindSpeedMPH,WindSpeedGustMPH,Humidity,HourlyPrecipIn,Conditions,Clouds,dailyrainin,SolarRadiationWatts/m^2,SoftwareType,DateUTC
2013-08-13 00:13:00,84.0,74.0,-100.00,East,89,7.0,15.0,73,0.00,,,0.03,0.000000,,2013-08-13 04:13:00,
2013-08-13 00:23:00,84.0,74.0,-100.00,East,89,7.0,15.0,73,0.00,,,0.03,0.000000,,2013-08-13 04:23:00,
2013-08-13 00:33:00,84.0,74.0,-100.00,East,89,7.0,15.0,73,0.00,,,0.03,0.000000,,2013-08-13 04:33:00,
2013-08-13 01:12:00,83.0,74.0,-100.00,ENE,72,8.0,16.0,74,0.00,,,0.03,0.000000,,2013-08-13 05:12:00,
2013-08-13 01:22:00,83.0,74.0,-100.00,ENE,72,8.0,16.0,74,0.00,,,0.03,0.000000,,2013-08-13 05:22:00,
2013-08-13 01:32:00,83.0,74.0,-100.00,ENE,72,8.0,16.0,74,0.00,,,0.03,0.000000,,2013-08-13 05:32:00,
2013-08-13 02:11:00,83.0,75.0,-100.00,East,87,7.0,14.0,76,0.00,,,0.03,0.000000,,2013-08-13 06:11:00,
2013-08-13 02:21:00,83.0,75.0,-100.00,East,87,7.0,14.0,76,0.00,,,0.03,0.000000,,2013-08-13 06:21:00,
2013-08-13 02:32:00,83.0,75.0,-100.00,East,87,7.0,14.0,76,0.00,,,0.03,0.000000,,2013-08-13 06:32:00,
2013-08-13 03:12:00,83.0,74.0,-100.00,East,99,7.0,13.0,75,0.00,,,0.03,0.000000,,2013-08-13 07:12:00,
2013-08-13 03:21:00,83.0,74.0,-100.00,East,99,7.0,13.0,75,0.00,,,0.03,0.000000,,2013-08-13 07:21:00,
2013-08-13 03:33:00,83.0,74.0,-100.00,East,99,7.0,13.0,75,0.00,,,0.03,0.000000,,2013-08-13 07:33:00,
2013-08-13 04:11:00,83.0,75.0,-100.00,ESE,106,4.0,11.0,76,0.00,,,0.03,0.000000,,2013-08-13 08:11:00,
2013-08-13 04:22:00,83.0,75.0,-100.00,ESE,106,4.0,11.0,76,0.00,,,0.03,0.000000,,2013-08-13 08:22:00,
2013-08-13 04:32:00,83.0,75.0,-100.00,ESE,106,4.0,11.0,76,0.00,,,0.03,0.000000,,2013-08-13 08:32:00,
2013-08-13 05:11:00,82.0,73.0,-100.00,ESE,115,4.0,10.0,74,0.00,,,0.03,0.000000,,2013-08-13 09:11:00,
2013-08-13 05:22:00,82.0,73.0,-100.00,ESE,115,4.0,10.0,74,0.00,,,0.03,0.000000,,2013-08-13 09:22:00,
2013-08-13 05:33:00,82.0,73.0,-100.00,ESE,115,4.0,10.0,74,0.00,,,0.03,0.000000,,2013-08-13 09:33:00,
2013-08-13 06:13:00,82.0,74.0,-100.00,SSE,152,2.0,7.0,78,0.00,,,0.03,0.000000,,2013-08-13 10:13:00,
2013-08-13 06:23:00,82.0,74.0,-100.00,SSE,152,2.0,7.0,78,0.00,,,0.03,0.000000,,2013-08-13 10:23:00,
2013-08-13 06:32:00,82.0,74.0,-100.00,SSE,152,2.0,7.0,78,0.00,,,0.03,0.000000,,2013-08-13 10:32:00,
2013-08-13 07:11:00,81.0,73.0,-100.00,ESE,105,3.0,7.0,78,0.00,,,0.00,0.000000,,2013-08-13 11:11:00,
2013-08-13 07:22:00,81.0,73.0,-100.00,ESE,105,3.0,7.0,78,0.00,,,0.00,0.000000,,2013-08-13 11:22:00,
2013-08-13 07:32:00,81.0,73.0,-100.00,ESE,105,3.0,7.0,78,0.00,,,0.00,0.000000,,2013-08-13 11:32:00,
2013-08-13 08:12:00,84.0,75.0,-100.00,East,93,5.0,10.0,75,0.00,,,0.00,23.000000,,2013-08-13 12:12:00,
2013-08-13 08:21:00,84.0,75.0,-100.00,East,93,5.0,10.0,75,0.00,,,0.00,23.000000,,2013-08-13 12:21:00,
2013-08-13 08:31:00,84.0,75.0,-100.00,East,93,5.0,10.0,75,0.00,,,0.00,23.000000,,2013-08-13 12:31:00,
2013-08-13 09:11:00,86.0,74.0,-100.00,ESE,102,5.0,12.0,68,0.00,,,0.00,180.000000,,2013-08-13 13:11:00,
2013-08-13 09:22:00,86.0,74.0,-100.00,ESE,102,5.0,12.0,68,0.00,,,0.00,180.000000,,2013-08-13 13:22:00,
2013-08-13 09:32:00,86.0,74.0,-100.00,ESE,102,5.0,12.0,68,0.00,,,0.00,180.000000,,2013-08-13 13:32:00,
2013-08-13 10:11:00,87.0,74.0,-100.00,ESE,119,6.0,11.0,65,0.00,,,0.00,334.000000,,2013-08-13 14:11:00,
2013-08-13 10:22:00,87.0,74.0,-100.00,ESE,119,6.0,11.0,65,0.00,,,0.00,334.000000,,2013-08-13 14:22:00,
2013-08-13 10:32:00,87.0,74.0,-100.00,ESE,119,6.0,11.0,65,0.00,,,0.00,334.000000,,2013-08-13 14:32:00,
2013-08-13 11:11:00,90.0,74.0,-100.00,ESE,110,6.0,12.0,60,0.00,,,0.00,561.000000,,2013-08-13 15:11:00,
2013-08-13 11:22:00,90.0,74.0,-100.00,ESE,110,6.0,12.0,60,0.00,,,0.00,561.000000,,2013-08-13 15:22:00,
2013-08-13 11:35:00,90.0,74.0,-100.00,ESE,110,6.0,12.0,60,0.00,,,0.00,561.000000,,2013-08-13 15:35:00,
2013-08-13 12:13:00,90.0,74.0,-100.00,ESE,102,6.0,13.0,59,0.00,,,0.00,766.000000,,2013-08-13 16:13:00,
2013-08-13 12:24:00,90.0,74.0,-100.00,ESE,102,6.0,13.0,59,0.00,,,0.00,766.000000,,2013-08-13 16:24:00,
2013-08-13 12:36:00,90.0,74.0,-100.00,ESE,102,6.0,13.0,59,0.00,,,0.00,766.000000,,2013-08-13 16:36:00,
2013-08-13 12:38:00,91.0,75.0,-100.00,ESE,103,6.0,12.0,59,0.00,,,0.00,848.000000,,2013-08-13 16:38:00,
2013-08-13 13:16:00,91.0,75.0,-100.00,ESE,103,6.0,12.0,59,0.00,,,0.00,848.000000,,2013-08-13 17:16:00,
2013-08-13 13:27:00,91.0,75.0,-100.00,ESE,103,6.0,12.0,59,0.00,,,0.00,848.000000,,2013-08-13 17:27:00,
2013-08-13 14:15:00,91.0,74.0,-100.00,ESE,106,6.0,14.0,57,0.00,,,0.00,906.000000,,2013-08-13 18:15:00,
2013-08-13 14:25:00,91.0,74.0,-100.00,ESE,106,6.0,14.0,57,0.00,,,0.00,906.000000,,2013-08-13 18:25:00,
2013-08-13 14:37:00,91.0,74.0,-100.00,ESE,106,6.0,14.0,57,0.00,,,0.00,906.000000,,2013-08-13 18:37:00,
2013-08-13 15:14:00,88.0,75.0,-100.00,ESE,102,6.0,13.0,65,0.00,,,0.00,553.000000,,2013-08-13 19:14:00,
2013-08-13 15:25:00,88.0,75.0,-100.00,ESE,102,6.0,13.0,65,0.00,,,0.00,553.000000,,2013-08-13 19:25:00,
2013-08-13 15:36:00,88.0,75.0,-100.00,ESE,102,6.0,13.0,65,0.00,,,0.00,553.000000,,2013-08-13 19:36:00,
2013-08-13 16:15:00,90.0,75.0,-100.00,ESE,107,6.0,14.0,61,0.00,,,0.00,504.000000,,2013-08-13 20:15:00,
2013-08-13 16:22:00,90.0,75.0,-100.00,ESE,107,6.0,14.0,61,0.00,,,0.00,504.000000,,2013-08-13 20:22:00,
2013-08-13 16:32:00,90.0,75.0,-100.00,ESE,107,6.0,14.0,61,0.00,,,0.00,504.000000,,2013-08-13 20:32:00,
2013-08-13 17:11:00,87.0,74.0,-100.00,ESE,110,6.0,13.0,65,0.00,,,0.00,311.000000,,2013-08-13 21:11:00,
2013-08-13 17:24:00,87.0,74.0,-100.00,ESE,110,6.0,13.0,65,0.00,,,0.00,311.000000,,2013-08-13 21:24:00,
2013-08-13 17:34:00,87.0,74.0,-100.00,ESE,110,6.0,13.0,65,0.00,,,0.00,311.000000,,2013-08-13 21:34:00,
2013-08-13 18:13:00,87.0,74.0,-100.00,ESE,114,6.0,12.0,65,0.00,,,0.00,314.000000,,2013-08-13 22:13:00,
2013-08-13 18:23:00,87.0,74.0,-100.00,ESE,114,6.0,12.0,65,0.00,,,0.00,314.000000,,2013-08-13 22:23:00,
2013-08-13 18:35:00,87.0,74.0,-100.00,ESE,114,6.0,12.0,65,0.00,,,0.00,314.000000,,2013-08-13 22:35:00,
2013-08-13 19:13:00,88.0,74.0,-100.00,ESE,118,5.0,12.0,63,0.00,,,0.00,315.000000,,2013-08-13 23:13:00,
2013-08-13 19:26:00,88.0,74.0,-100.00,ESE,118,5.0,12.0,63,0.00,,,0.00,315.000000,,2013-08-13 23:26:00,
2013-08-13 19:36:00,88.0,74.0,-100.00,ESE,118,5.0,12.0,63,0.00,,,0.00,315.000000,,2013-08-13 23:36:00,
2013-08-13 20:11:00,85.0,73.0,-100.00,ESE,122,5.0,10.0,67,0.00,,,0.00,129.000000,,2013-08-14 00:11:00,
2013-08-13 20:22:00,85.0,73.0,-100.00,ESE,122,5.0,10.0,67,0.00,,,0.00,129.000000,,2013-08-14 00:22:00,
2013-08-13 20:32:00,85.0,73.0,-100.00,ESE,122,5.0,10.0,67,0.00,,,0.00,129.000000,,2013-08-14 00:32:00,
2013-08-13 21:11:00,83.0,73.0,-100.00,SE,129,6.0,11.0,73,0.00,,,0.00,6.000000,,2013-08-14 01:11:00,
2013-08-13 21:21:00,83.0,73.0,-100.00,SE,129,6.0,11.0,73,0.00,,,0.00,6.000000,,2013-08-14 01:21:00,
2013-08-13 21:32:00,83.0,73.0,-100.00,SE,129,6.0,11.0,73,0.00,,,0.00,6.000000,,2013-08-14 01:32:00,
2013-08-13 22:11:00,83.0,73.0,-100.00,ESE,116,5.0,12.0,72,0.00,,,0.00,0.000000,,2013-08-14 02:11:00,
2013-08-13 22:22:00,83.0,73.0,-100.00,ESE,116,5.0,12.0,72,0.00,,,0.00,0.000000,,2013-08-14 02:22:00,
2013-08-13 22:32:00,83.0,73.0,-100.00,ESE,116,5.0,12.0,72,0.00,,,0.00,0.000000,,2013-08-14 02:32:00,
2013-08-13 23:11:00,83.0,74.0,-100.00,SE,128,5.0,11.0,74,0.00,,,0.00,0.000000,,2013-08-14 03:11:00,
2013-08-13 23:22:00,83.0,74.0,-100.00,SE,128,5.0,11.0,74,0.00,,,0.00,0.000000,,2013-08-14 03:22:00,
2013-08-13 23:33:00,83.0,74.0,-100.00,SE,128,5.0,11.0,74,0.00,,,0.00,0.000000,,2013-08-14 03:33:00,